CZ-4C R/B (44623 NORAD) Tracking and Keplerian Element Data

This shows tracking and keplerian element data for the satellite.

Feedback or suggestion? Click here.




ElementValue
Catalog44623
NameCZ-4C R/B
Epoch Orbit448
Epoch Day307.43364225
Epoch Year2019
RAAN253.3289
Inclination97.7622
Eccentricity0.0126256
Argument of Perigee297.2112
Mean Anonmoly61.6298
Mean Motion15.14292609
Decay Rate9E-06
L11 44623U 19066B 19307.43364225 .00000900 00000-0 44260-4 0 9999
L22 44623 97.7622 253.3289 0126256 297.2112 61.6298 15.14292609 4489

Live tracking and technical data element details for CZ-4C R/B (NORAD 44623). CZ-4C R/B can be tracked NOW for your location showing map with azimuth and elevation plus other details from your city location.

Track the satellite on the map from your city or location and see movement details for azimuth, elevation, latitude, longitude, range, height, and movement on the map or in text.







IsCatalogInMostPopularTable: catalog: 44623, numindb: 14
Update: records affected: 1



GetName: 44623 CZ-4C R/B

Hit Count: updated at: Thu, 12 Dec 2019 00:06:02 GMT